Location: Cluj-Napoca
(46.7712°N, 23.6236°E)
Time: 21:34:46
(UTC+02:00)

First-Move - Pass Details

Date: 28 November 2021
Orbit: 574 x 665 km, 97.6° (Epoch: 28 January)

Event Time Altitude Azimuth Distance (km) Brightness Sun altitude
Rises 04:02:41 0° 24° (NNE) 2,980 ? -37.5°
Reaches altitude 10° 04:05:16 10° 39° (NE) 2,076 ? -37.1°
Enters shadow 04:06:14 15° 48° (NE) 1,791 ? -36.9°
